Time,TemperatureF,DewpointF,PressureIn,WindDirection,WindDirectionDegrees,WindSpeedMPH,WindSpeedGustMPH,Humidity,HourlyPrecipIn,Conditions,Clouds,dailyrainin,SoftwareType,DateUTC
2013-05-13 00:03:00,40.9,38.2,29.61,NE,45,1.1,1.3,90,0.00,,,0.00,WUHU216HW,2013-05-12 23:03:00,
2013-05-13 00:08:00,40.9,38.2,29.61,WNW,293,1.8,1.8,90,0.00,,,0.00,WUHU216HW,2013-05-12 23:08:00,
2013-05-13 00:13:00,40.9,37.9,29.62,WNW,293,0.2,1.8,89,0.00,,,0.00,WUHU216HW,2013-05-12 23:13:00,
2013-05-13 00:18:00,40.9,38.2,29.62,SSE,158,0.9,1.8,90,0.00,,,0.00,WUHU216HW,2013-05-12 23:18:00,
2013-05-13 00:23:00,40.9,37.9,29.61,North,0,0.9,0.9,89,0.00,,,0.00,WUHU216HW,2013-05-12 23:23:00,
2013-05-13 00:28:00,41.0,38.1,29.61,WNW,293,0.4,1.1,89,0.00,,,0.00,WUHU216HW,2013-05-12 23:28:00,
2013-05-13 00:33:00,41.0,38.1,29.61,SSE,158,0.4,1.1,89,0.00,,,0.00,WUHU216HW,2013-05-12 23:33:00,
2013-05-13 00:38:00,41.0,38.1,29.61,ESE,113,1.1,1.1,89,0.00,,,0.00,WUHU216HW,2013-05-12 23:38:00,
2013-05-13 00:43:00,41.0,38.1,29.61,NE,45,0.7,1.1,89,0.00,,,0.00,WUHU216HW,2013-05-12 23:43:00,
2013-05-13 00:48:00,41.0,38.1,29.61,NNW,338,0.4,1.6,89,0.00,,,0.00,WUHU216HW,2013-05-12 23:48:00,
2013-05-13 00:53:00,41.0,38.1,29.61,SSE,158,2.5,2.5,89,0.00,,,0.00,WUHU216HW,2013-05-12 23:53:00,
2013-05-13 00:58:00,41.0,38.1,29.60,NW,315,0.7,2.5,89,0.01,,,0.01,WUHU216HW,2013-05-12 23:58:00,
2013-05-13 01:03:00,40.7,37.7,29.60,ESE,113,2.0,3.1,89,0.01,,,0.01,WUHU216HW,2013-05-13 00:03:00,
2013-05-13 01:08:00,40.3,37.4,29.60,NW,315,0.7,3.1,89,0.02,,,0.02,WUHU216HW,2013-05-13 00:08:00,
2013-05-13 01:13:00,40.0,37.0,29.60,WNW,293,0.7,2.0,89,0.02,,,0.02,WUHU216HW,2013-05-13 00:13:00,
2013-05-13 01:18:00,39.8,36.8,29.60,SSW,203,1.3,1.3,89,0.02,,,0.02,WUHU216HW,2013-05-13 00:18:00,
2013-05-13 01:23:00,39.4,36.7,29.60,West,270,0.4,2.5,90,0.02,,,0.02,WUHU216HW,2013-05-13 00:23:00,
2013-05-13 01:28:00,39.4,36.7,29.59,West,270,0.4,2.5,90,0.02,,,0.02,WUHU216HW,2013-05-13 00:28:00,
2013-05-13 01:33:00,39.4,36.7,29.59,West,270,1.8,1.8,90,0.02,,,0.02,WUHU216HW,2013-05-13 00:33:00,
2013-05-13 01:38:00,39.2,36.5,29.59,West,270,0.0,1.8,90,0.02,,,0.02,WUHU216HW,2013-05-13 00:38:00,
2013-05-13 01:43:00,39.2,36.5,29.59,West,270,0.2,0.2,90,0.02,,,0.02,WUHU216HW,2013-05-13 00:43:00,
2013-05-13 01:48:00,39.4,36.7,29.59,West,270,0.0,0.2,90,0.02,,,0.02,WUHU216HW,2013-05-13 00:48:00,
2013-05-13 01:53:00,39.4,36.7,29.59,West,270,0.4,0.4,90,0.01,,,0.02,WUHU216HW,2013-05-13 00:53:00,
2013-05-13 01:58:00,39.6,36.9,29.59,ESE,113,0.0,0.4,90,0.01,,,0.02,WUHU216HW,2013-05-13 00:58:00,
2013-05-13 02:03:00,39.8,37.1,29.60,NW,315,0.7,0.7,90,0.01,,,0.02,WUHU216HW,2013-05-13 01:03:00,
2013-05-13 02:08:00,39.6,36.9,29.59,NNW,338,2.9,2.9,90,0.02,,,0.04,WUHU216HW,2013-05-13 01:08:00,
2013-05-13 02:13:00,39.2,36.5,29.59,ESE,113,1.1,2.9,90,0.03,,,0.05,WUHU216HW,2013-05-13 01:13:00,
2013-05-13 02:18:00,38.9,36.2,29.59,SSE,158,1.1,2.9,90,0.03,,,0.05,WUHU216HW,2013-05-13 01:18:00,
2013-05-13 02:23:00,38.9,36.2,29.59,NE,45,0.7,1.1,90,0.03,,,0.05,WUHU216HW,2013-05-13 01:23:00,
2013-05-13 02:28:00,38.7,36.0,29.58,NNW,338,4.0,4.0,90,0.03,,,0.05,WUHU216HW,2013-05-13 01:28:00,
2013-05-13 02:33:00,38.2,35.5,29.58,WNW,293,1.3,4.0,90,0.04,,,0.06,WUHU216HW,2013-05-13 01:33:00,
2013-05-13 02:38:00,37.8,35.1,29.58,WNW,293,1.1,1.8,90,0.04,,,0.06,WUHU216HW,2013-05-13 01:38:00,
2013-05-13 02:43:00,37.8,35.1,29.58,West,270,1.8,1.8,90,0.04,,,0.06,WUHU216HW,2013-05-13 01:43:00,
2013-05-13 02:48:00,37.6,34.9,29.58,SSW,203,0.9,1.8,90,0.04,,,0.06,WUHU216HW,2013-05-13 01:48:00,
2013-05-13 02:53:00,37.4,34.7,29.58,SW,225,0.7,0.9,90,0.04,,,0.06,WUHU216HW,2013-05-13 01:53:00,
2013-05-13 02:58:00,37.3,34.3,29.57,South,180,0.9,0.9,89,0.04,,,0.06,WUHU216HW,2013-05-13 01:58:00,
2013-05-13 03:03:00,37.3,34.3,29.58,WNW,293,1.8,1.8,89,0.04,,,0.06,WUHU216HW,2013-05-13 02:03:00,
2013-05-13 03:08:00,37.3,34.3,29.57,SSW,203,0.4,1.8,89,0.01,,,0.06,WUHU216HW,2013-05-13 02:08:00,
2013-05-13 03:13:00,37.4,34.7,29.57,SSW,203,1.1,1.1,90,0.01,,,0.06,WUHU216HW,2013-05-13 02:13:00,
2013-05-13 03:18:00,37.6,34.9,29.56,SW,225,0.0,1.1,90,0.01,,,0.06,WUHU216HW,2013-05-13 02:18:00,
2013-05-13 03:23:00,37.6,34.9,29.57,West,270,0.0,1.1,90,0.01,,,0.06,WUHU216HW,2013-05-13 02:23:00,
2013-05-13 03:28:00,37.6,34.9,29.57,West,270,0.4,0.4,90,0.00,,,0.06,WUHU216HW,2013-05-13 02:28:00,
2013-05-13 03:33:00,37.6,34.9,29.56,WNW,293,1.3,1.3,90,0.00,,,0.06,WUHU216HW,2013-05-13 02:33:00,
2013-05-13 03:38:00,37.6,35.2,29.55,WNW,293,0.0,1.3,91,0.00,,,0.06,WUHU216HW,2013-05-13 02:38:00,
2013-05-13 03:43:00,37.8,35.1,29.55,WNW,293,0.4,1.3,90,0.00,,,0.06,WUHU216HW,2013-05-13 02:43:00,
2013-05-13 03:48:00,37.8,35.1,29.56,WNW,293,2.5,2.5,90,0.00,,,0.06,WUHU216HW,2013-05-13 02:48:00,
2013-05-13 03:53:00,37.8,35.1,29.56,WNW,293,3.8,3.8,90,0.00,,,0.06,WUHU216HW,2013-05-13 02:53:00,
2013-05-13 03:58:00,37.8,35.1,29.56,WNW,293,2.9,3.8,90,0.00,,,0.06,WUHU216HW,2013-05-13 02:58:00,
2013-05-13 04:03:00,37.3,34.6,29.56,NW,315,2.2,3.8,90,0.01,,,0.06,WUHU216HW,2013-05-13 03:03:00,
2013-05-13 04:08:00,37.1,34.4,29.56,WNW,293,3.1,3.1,90,0.02,,,0.08,WUHU216HW,2013-05-13 03:08:00,
2013-05-13 04:13:00,36.9,34.5,29.56,WNW,293,0.9,3.1,91,0.04,,,0.10,WUHU216HW,2013-05-13 03:13:00,
2013-05-13 04:18:00,36.5,34.1,29.55,WNW,293,2.2,4.7,91,0.04,,,0.10,WUHU216HW,2013-05-13 03:18:00,
2013-05-13 04:23:00,36.5,34.1,29.55,NW,315,1.1,4.7,91,0.04,,,0.10,WUHU216HW,2013-05-13 03:23:00,
2013-05-13 04:28:00,36.4,33.9,29.55,WNW,293,1.8,2.2,91,0.04,,,0.10,WUHU216HW,2013-05-13 03:28:00,
2013-05-13 04:33:00,36.4,33.9,29.55,WNW,293,1.8,1.8,91,0.04,,,0.10,WUHU216HW,2013-05-13 03:33:00,
2013-05-13 04:38:00,36.4,33.9,29.55,WNW,293,1.3,1.8,91,0.04,,,0.10,WUHU216HW,2013-05-13 03:38:00,
2013-05-13 04:43:00,36.4,33.9,29.55,WNW,293,1.3,1.3,91,0.04,,,0.10,WUHU216HW,2013-05-13 03:43:00,
2013-05-13 04:48:00,36.4,33.9,29.55,NNW,338,0.7,1.3,91,0.04,,,0.10,WUHU216HW,2013-05-13 03:48:00,
2013-05-13 04:53:00,36.5,34.1,29.55,WNW,293,1.3,1.3,91,0.05,,,0.11,WUHU216HW,2013-05-13 03:53:00,
2013-05-13 04:58:00,36.4,33.9,29.56,WSW,248,1.3,1.3,91,0.06,,,0.11,WUHU216HW,2013-05-13 03:58:00,
2013-05-13 05:03:00,36.2,33.8,29.55,NW,315,0.4,1.3,91,0.05,,,0.12,WUHU216HW,2013-05-13 04:03:00,
2013-05-13 05:08:00,36.0,33.6,29.55,NW,315,1.8,1.8,91,0.03,,,0.13,WUHU216HW,2013-05-13 04:08:00,
2013-05-13 05:13:00,35.6,33.5,29.55,NW,315,1.3,1.8,92,0.04,,,0.14,WUHU216HW,2013-05-13 04:13:00,
2013-05-13 05:18:00,35.1,32.9,29.55,WNW,293,2.2,2.2,92,0.06,,,0.15,WUHU216HW,2013-05-13 04:18:00,
2013-05-13 05:23:00,34.9,32.8,29.55,NNW,338,0.4,2.2,92,0.07,,,0.17,WUHU216HW,2013-05-13 04:23:00,
2013-05-13 05:28:00,34.9,32.8,29.55,NW,315,1.1,2.2,92,0.08,,,0.18,WUHU216HW,2013-05-13 04:28:00,
2013-05-13 05:33:00,34.9,32.8,29.55,WSW,248,0.4,2.0,92,0.10,,,0.19,WUHU216HW,2013-05-13 04:33:00,
2013-05-13 05:38:00,34.9,32.8,29.55,NW,315,0.9,2.0,92,0.10,,,0.20,WUHU216HW,2013-05-13 04:38:00,
2013-05-13 05:43:00,35.1,32.9,29.55,West,270,0.0,0.9,92,0.11,,,0.21,WUHU216HW,2013-05-13 04:43:00,
2013-05-13 05:48:00,35.3,33.1,29.55,WNW,293,2.0,2.0,92,0.11,,,0.22,WUHU216HW,2013-05-13 04:48:00,
2013-05-13 05:53:00,35.3,33.1,29.55,WNW,293,2.2,2.2,92,0.11,,,0.22,WUHU216HW,2013-05-13 04:53:00,
2013-05-13 05:58:00,35.5,33.3,29.55,NW,315,0.7,2.2,92,0.10,,,0.22,WUHU216HW,2013-05-13 04:58:00,
2013-05-13 06:03:00,35.6,33.5,29.55,WSW,248,0.4,2.2,92,0.10,,,0.22,WUHU216HW,2013-05-13 05:03:00,
2013-05-13 06:08:00,35.8,33.7,29.55,NW,315,0.4,0.4,92,0.09,,,0.23,WUHU216HW,2013-05-13 05:08:00,
2013-05-13 06:13:00,36.0,33.8,29.55,NW,315,0.0,0.4,92,0.08,,,0.23,WUHU216HW,2013-05-13 05:13:00,
2013-05-13 06:18:00,36.2,34.0,29.55,NW,315,0.4,0.4,92,0.07,,,0.23,WUHU216HW,2013-05-13 05:18:00,
2013-05-13 06:23:00,36.5,34.4,29.55,WNW,293,0.9,0.9,92,0.06,,,0.23,WUHU216HW,2013-05-13 05:23:00,
2013-05-13 06:28:00,36.7,34.6,29.55,West,270,0.4,0.9,92,0.04,,,0.23,WUHU216HW,2013-05-13 05:28:00,
2013-05-13 06:33:00,36.7,34.6,29.55,WNW,293,0.7,0.9,92,0.03,,,0.23,WUHU216HW,2013-05-13 05:33:00,
2013-05-13 06:38:00,37.3,35.1,29.54,SSW,203,0.4,0.7,92,0.03,,,0.23,WUHU216HW,2013-05-13 05:38:00,
2013-05-13 06:43:00,37.4,35.3,29.54,South,180,0.2,0.4,92,0.02,,,0.23,WUHU216HW,2013-05-13 05:43:00,
2013-05-13 06:48:00,37.8,35.6,29.54,WNW,293,0.2,0.4,92,0.01,,,0.23,WUHU216HW,2013-05-13 05:48:00,
2013-05-13 06:53:00,38.0,35.8,29.54,SW,225,0.4,0.4,92,0.01,,,0.23,WUHU216HW,2013-05-13 05:53:00,
2013-05-13 06:58:00,38.2,36.0,29.53,SE,135,0.2,0.4,92,0.01,,,0.23,WUHU216HW,2013-05-13 05:58:00,
2013-05-13 07:03:00,38.3,36.2,29.54,NNE,23,0.2,0.2,92,0.00,,,0.23,WUHU216HW,2013-05-13 06:03:00,
2013-05-13 07:09:00,38.9,36.7,29.54,North,0,1.3,1.3,92,0.00,,,0.23,WUHU216HW,2013-05-13 06:09:00,
2013-05-13 07:14:00,38.9,36.7,29.55,NNE,23,1.8,2.2,92,0.01,,,0.25,WUHU216HW,2013-05-13 06:14:00,
2013-05-13 07:19:00,38.5,36.4,29.54,ENE,68,1.3,2.2,92,0.03,,,0.27,WUHU216HW,2013-05-13 06:19:00,
2013-05-13 07:24:00,38.2,36.0,29.54,NNE,23,1.6,1.8,92,0.04,,,0.27,WUHU216HW,2013-05-13 06:24:00,
2013-05-13 07:29:00,38.0,35.8,29.54,NE,45,1.1,1.6,92,0.05,,,0.28,WUHU216HW,2013-05-13 06:29:00,
2013-05-13 07:34:00,38.2,36.0,29.53,SSE,158,1.1,1.8,92,0.05,,,0.28,WUHU216HW,2013-05-13 06:34:00,
2013-05-13 07:39:00,38.5,36.4,29.54,NW,315,1.8,1.8,92,0.05,,,0.28,WUHU216HW,2013-05-13 06:39:00,
2013-05-13 07:44:00,39.2,37.4,29.53,SSE,158,0.4,1.8,93,0.05,,,0.28,WUHU216HW,2013-05-13 06:44:00,
2013-05-13 07:49:00,39.6,37.7,29.53,NW,315,0.9,1.8,93,0.05,,,0.28,WUHU216HW,2013-05-13 06:49:00,
2013-05-13 07:54:00,40.0,38.1,29.53,SSE,158,2.5,2.5,93,0.05,,,0.28,WUHU216HW,2013-05-13 06:54:00,
2013-05-13 07:59:00,40.3,38.4,29.53,SE,135,1.6,2.5,93,0.05,,,0.28,WUHU216HW,2013-05-13 06:59:00,
2013-05-13 08:04:00,40.3,38.4,29.54,NNE,23,2.5,2.5,93,0.05,,,0.28,WUHU216HW,2013-05-13 07:04:00,
2013-05-13 08:09:00,40.7,38.8,29.55,SSE,158,2.0,2.5,93,0.04,,,0.28,WUHU216HW,2013-05-13 07:09:00,
2013-05-13 08:14:00,41.2,39.1,29.55,North,0,1.6,2.5,92,0.04,,,0.28,WUHU216HW,2013-05-13 07:14:00,
2013-05-13 08:19:00,40.9,38.4,29.55,ESE,113,1.8,2.0,91,0.02,,,0.28,WUHU216HW,2013-05-13 07:19:00,
2013-05-13 08:24:00,40.9,38.4,29.55,NNE,23,0.9,1.8,91,0.01,,,0.28,WUHU216HW,2013-05-13 07:24:00,
2013-05-13 08:29:00,40.7,38.3,29.55,North,0,2.5,2.5,91,0.00,,,0.28,WUHU216HW,2013-05-13 07:29:00,
2013-05-13 08:34:00,41.2,38.8,29.55,North,0,1.8,2.5,91,0.00,,,0.28,WUHU216HW,2013-05-13 07:34:00,
2013-05-13 08:39:00,42.1,39.4,29.55,North,0,2.0,2.0,90,0.00,,,0.28,WUHU216HW,2013-05-13 07:39:00,
2013-05-13 08:44:00,43.9,41.2,29.55,NNW,338,2.0,2.0,90,0.00,,,0.28,WUHU216HW,2013-05-13 07:44:00,
2013-05-13 08:49:00,46.6,43.3,29.55,SSE,158,1.8,2.0,88,0.00,,,0.28,WUHU216HW,2013-05-13 07:49:00,
2013-05-13 08:54:00,47.5,43.2,29.54,South,180,1.8,1.8,85,0.00,,,0.28,WUHU216HW,2013-05-13 07:54:00,
2013-05-13 08:59:00,46.8,42.0,29.54,NE,45,2.7,2.7,83,0.00,,,0.28,WUHU216HW,2013-05-13 07:59:00,
2013-05-13 09:04:00,45.5,40.7,29.54,NE,45,0.7,2.7,83,0.00,,,0.28,WUHU216HW,2013-05-13 08:04:00,
2013-05-13 09:09:00,44.6,40.2,29.54,NNE,23,1.8,2.7,84,0.00,,,0.28,WUHU216HW,2013-05-13 08:09:00,
2013-05-13 09:14:00,43.2,39.0,29.54,South,180,1.1,1.8,85,0.00,,,0.28,WUHU216HW,2013-05-13 08:14:00,
2013-05-13 09:19:00,43.0,38.8,29.54,East,90,2.2,2.2,85,0.00,,,0.28,WUHU216HW,2013-05-13 08:19:00,
2013-05-13 09:24:00,43.0,39.1,29.53,NNE,23,3.4,3.4,86,0.00,,,0.28,WUHU216HW,2013-05-13 08:24:00,
2013-05-13 09:29:00,43.6,40.0,29.53,NNW,338,2.9,3.4,87,0.00,,,0.28,WUHU216HW,2013-05-13 08:29:00,
2013-05-13 09:34:00,44.5,40.5,29.53,SSE,158,1.1,2.9,86,0.00,,,0.28,WUHU216HW,2013-05-13 08:34:00,
2013-05-13 09:39:00,45.4,41.1,29.53,NNW,338,1.8,2.9,85,0.00,,,0.28,WUHU216HW,2013-05-13 08:39:00,
2013-05-13 09:44:00,45.0,40.5,29.53,SSE,158,3.8,3.8,84,0.00,,,0.28,WUHU216HW,2013-05-13 08:44:00,
2013-05-13 09:49:00,44.5,40.2,29.53,SSE,158,1.6,3.8,85,0.00,,,0.28,WUHU216HW,2013-05-13 08:49:00,
2013-05-13 09:54:00,44.1,39.9,29.54,SSE,158,2.2,3.8,85,0.00,,,0.28,WUHU216HW,2013-05-13 08:54:00,
2013-05-13 09:59:00,43.4,39.8,29.54,SE,135,2.5,3.4,87,0.01,,,0.28,WUHU216HW,2013-05-13 08:59:00,
2013-05-13 10:04:00,44.6,41.3,29.54,NNE,23,2.5,3.4,88,0.01,,,0.30,WUHU216HW,2013-05-13 09:04:00,
2013-05-13 10:09:00,45.9,42.3,29.54,NNW,338,2.2,2.5,87,0.01,,,0.30,WUHU216HW,2013-05-13 09:09:00,
2013-05-13 10:14:00,47.5,42.6,29.54,ENE,68,3.4,3.4,83,0.01,,,0.30,WUHU216HW,2013-05-13 09:14:00,
2013-05-13 10:19:00,47.9,42.9,29.54,NNE,23,2.9,3.4,83,0.01,,,0.30,WUHU216HW,2013-05-13 09:19:00,
2013-05-13 10:24:00,48.6,43.9,29.54,ESE,113,1.1,3.4,84,0.01,,,0.30,WUHU216HW,2013-05-13 09:24:00,
2013-05-13 10:29:00,48.2,42.7,29.54,SE,135,1.8,2.9,81,0.01,,,0.30,WUHU216HW,2013-05-13 09:29:00,
2013-05-13 10:34:00,47.0,41.5,29.54,North,0,2.5,2.5,81,0.01,,,0.30,WUHU216HW,2013-05-13 09:34:00,
2013-05-13 10:39:00,45.5,40.7,29.53,SE,135,1.8,2.5,83,0.01,,,0.30,WUHU216HW,2013-05-13 09:39:00,
2013-05-13 10:44:00,45.5,40.4,29.53,North,0,1.6,2.5,82,0.01,,,0.30,WUHU216HW,2013-05-13 09:44:00,
2013-05-13 10:49:00,45.5,40.4,29.53,ENE,68,4.9,4.9,82,0.01,,,0.30,WUHU216HW,2013-05-13 09:49:00,
2013-05-13 10:54:00,44.8,39.7,29.53,South,180,3.1,4.9,82,0.01,,,0.30,WUHU216HW,2013-05-13 09:54:00,
2013-05-13 10:59:00,43.7,38.9,29.54,WNW,293,2.0,3.1,83,0.02,,,0.32,WUHU216HW,2013-05-13 09:59:00,
2013-05-13 11:04:00,43.6,39.3,29.54,SE,135,3.4,3.4,85,0.03,,,0.32,WUHU216HW,2013-05-13 10:04:00,
2013-05-13 11:09:00,44.3,41.0,29.54,NW,315,4.7,4.7,88,0.03,,,0.32,WUHU216HW,2013-05-13 10:09:00,
2013-05-13 11:14:00,45.4,42.0,29.54,SE,135,2.5,4.7,88,0.03,,,0.32,WUHU216HW,2013-05-13 10:14:00,
2013-05-13 11:19:00,45.7,42.4,29.54,NW,315,3.4,4.7,88,0.03,,,0.32,WUHU216HW,2013-05-13 10:19:00,
2013-05-13 11:24:00,45.5,42.0,29.53,WNW,293,4.3,4.3,87,0.03,,,0.32,WUHU216HW,2013-05-13 10:24:00,
2013-05-13 11:29:00,46.1,41.9,29.52,North,0,1.8,4.3,85,0.03,,,0.32,WUHU216HW,2013-05-13 10:29:00,
2013-05-13 11:34:00,45.5,41.3,29.52,NW,315,1.3,1.8,85,0.03,,,0.32,WUHU216HW,2013-05-13 10:34:00,
2013-05-13 11:39:00,45.2,41.0,29.52,WNW,293,1.1,1.8,85,0.03,,,0.32,WUHU216HW,2013-05-13 10:39:00,
2013-05-13 11:44:00,44.5,40.5,29.53,ENE,68,1.1,1.3,86,0.04,,,0.32,WUHU216HW,2013-05-13 10:44:00,
2013-05-13 11:49:00,43.6,39.3,29.53,East,90,3.8,3.8,85,0.05,,,0.34,WUHU216HW,2013-05-13 10:49:00,
2013-05-13 11:54:00,43.0,39.1,29.53,North,0,3.4,3.8,86,0.07,,,0.37,WUHU216HW,2013-05-13 10:54:00,
2013-05-13 11:59:00,44.3,41.0,29.52,East,90,2.5,4.7,88,0.05,,,0.37,WUHU216HW,2013-05-13 10:59:00,
2013-05-13 12:04:00,44.3,41.0,29.52,North,0,1.8,4.7,88,0.04,,,0.37,WUHU216HW,2013-05-13 11:04:00,
2013-05-13 12:09:00,44.1,40.8,29.52,NNW,338,2.2,2.5,88,0.04,,,0.37,WUHU216HW,2013-05-13 11:09:00,
2013-05-13 12:14:00,44.6,41.7,29.51,East,90,1.1,2.2,89,0.04,,,0.37,WUHU216HW,2013-05-13 11:14:00,
2013-05-13 12:19:00,45.9,42.6,29.51,SSE,158,2.7,5.8,88,0.04,,,0.37,WUHU216HW,2013-05-13 11:19:00,
2013-05-13 12:24:00,46.4,43.1,29.50,SW,225,3.1,5.8,88,0.04,,,0.37,WUHU216HW,2013-05-13 11:24:00,
2013-05-13 12:29:00,46.6,42.4,29.51,SSE,158,3.8,3.8,85,0.04,,,0.37,WUHU216HW,2013-05-13 11:29:00,
2013-05-13 12:34:00,46.6,42.0,29.50,SSE,158,3.4,4.7,84,0.04,,,0.37,WUHU216HW,2013-05-13 11:34:00,
2013-05-13 12:39:00,46.6,42.0,29.50,SSE,158,3.4,4.7,84,0.04,,,0.37,WUHU216HW,2013-05-13 11:39:00,
2013-05-13 12:44:00,46.8,41.6,29.50,East,90,1.6,3.6,82,0.03,,,0.37,WUHU216HW,2013-05-13 11:44:00,
2013-05-13 12:49:00,47.2,42.6,29.49,West,270,2.5,3.6,84,0.00,,,0.37,WUHU216HW,2013-05-13 11:49:00,
2013-05-13 12:54:00,47.5,42.9,29.49,NNW,338,2.0,2.5,84,0.00,,,0.37,WUHU216HW,2013-05-13 11:54:00,
2013-05-13 12:59:00,48.4,43.5,29.49,NW,315,2.5,2.5,83,0.00,,,0.37,WUHU216HW,2013-05-13 11:59:00,
2013-05-13 13:04:00,49.0,43.4,29.50,NE,45,3.1,3.1,81,0.00,,,0.37,WUHU216HW,2013-05-13 12:04:00,
2013-05-13 13:09:00,49.0,42.7,29.50,NNW,338,3.4,3.4,79,0.00,,,0.37,WUHU216HW,2013-05-13 12:09:00,
2013-05-13 13:14:00,47.2,41.7,29.51,SSE,158,4.0,4.0,81,0.00,,,0.37,WUHU216HW,2013-05-13 12:14:00,
2013-05-13 13:19:00,45.2,39.7,29.52,North,0,3.1,4.0,81,0.01,,,0.38,WUHU216HW,2013-05-13 12:19:00,
2013-05-13 13:24:00,43.9,39.4,29.52,East,90,1.8,4.0,84,0.03,,,0.40,WUHU216HW,2013-05-13 12:24:00,
2013-05-13 13:29:00,42.8,38.6,29.51,NNW,338,2.7,3.1,85,0.04,,,0.41,WUHU216HW,2013-05-13 12:29:00,
2013-05-13 13:34:00,42.8,38.6,29.51,SSE,158,1.6,3.1,85,0.04,,,0.41,WUHU216HW,2013-05-13 12:34:00,
2013-05-13 13:39:00,43.2,39.2,29.51,SE,135,2.0,2.7,86,0.04,,,0.41,WUHU216HW,2013-05-13 12:39:00,
2013-05-13 13:44:00,43.7,40.4,29.51,NE,45,1.6,2.0,88,0.04,,,0.41,WUHU216HW,2013-05-13 12:44:00,
2013-05-13 13:49:00,45.4,42.0,29.51,SE,135,1.1,2.0,88,0.04,,,0.41,WUHU216HW,2013-05-13 12:49:00,
2013-05-13 13:54:00,46.1,42.8,29.50,ENE,68,1.8,1.8,88,0.04,,,0.41,WUHU216HW,2013-05-13 12:54:00,
2013-05-13 13:59:00,46.6,43.3,29.50,ESE,113,2.7,2.7,88,0.04,,,0.41,WUHU216HW,2013-05-13 12:59:00,
2013-05-13 14:04:00,47.7,43.8,29.50,ENE,68,2.7,2.7,86,0.04,,,0.41,WUHU216HW,2013-05-13 13:04:00,
2013-05-13 14:09:00,47.5,43.6,29.50,NNE,23,1.8,2.7,86,0.04,,,0.41,WUHU216HW,2013-05-13 13:09:00,
2013-05-13 14:14:00,47.3,43.4,29.50,WNW,293,2.7,2.7,86,0.04,,,0.41,WUHU216HW,2013-05-13 13:14:00,
2013-05-13 14:19:00,47.0,42.8,29.50,SSW,203,1.8,2.7,85,0.03,,,0.41,WUHU216HW,2013-05-13 13:19:00,
2013-05-13 14:24:00,48.1,43.7,29.50,ENE,68,1.3,3.4,85,0.00,,,0.41,WUHU216HW,2013-05-13 13:24:00,
2013-05-13 14:29:00,48.2,43.3,29.50,NNE,23,1.1,3.4,83,0.00,,,0.41,WUHU216HW,2013-05-13 13:29:00,
2013-05-13 14:34:00,47.9,42.3,29.51,North,0,1.8,1.8,81,0.00,,,0.41,WUHU216HW,2013-05-13 13:34:00,
2013-05-13 14:39:00,47.2,41.9,29.50,SSW,203,1.1,1.8,82,0.00,,,0.41,WUHU216HW,2013-05-13 13:39:00,
2013-05-13 14:44:00,46.1,41.2,29.50,NE,45,0.4,2.2,83,0.00,,,0.41,WUHU216HW,2013-05-13 13:44:00,
2013-05-13 14:49:00,45.7,40.9,29.50,NNE,23,1.1,2.2,83,0.00,,,0.41,WUHU216HW,2013-05-13 13:49:00,
2013-05-13 14:54:00,45.9,41.4,29.49,SSE,158,2.7,2.7,84,0.00,,,0.41,WUHU216HW,2013-05-13 13:54:00,
2013-05-13 14:59:00,47.3,42.1,29.50,SE,135,3.6,3.6,82,0.00,,,0.41,WUHU216HW,2013-05-13 13:59:00,
2013-05-13 15:04:00,47.7,42.5,29.50,West,270,4.0,4.0,82,0.00,,,0.41,WUHU216HW,2013-05-13 14:04:00,
2013-05-13 15:09:00,48.2,42.9,29.50,NW,315,4.0,4.0,82,0.00,,,0.41,WUHU216HW,2013-05-13 14:09:00,
2013-05-13 15:14:00,48.6,43.0,29.50,ESE,113,3.1,4.0,81,0.00,,,0.41,WUHU216HW,2013-05-13 14:14:00,
2013-05-13 15:19:00,47.0,41.5,29.50,NNE,23,3.1,4.0,81,0.01,,,0.42,WUHU216HW,2013-05-13 14:19:00,
2013-05-13 15:24:00,46.6,41.8,29.50,WNW,293,4.0,4.0,83,0.01,,,0.42,WUHU216HW,2013-05-13 14:24:00,
2013-05-13 15:29:00,46.8,42.6,29.49,NNW,338,2.5,4.0,85,0.01,,,0.42,WUHU216HW,2013-05-13 14:29:00,
2013-05-13 15:34:00,47.9,43.6,29.48,NE,45,3.1,8.7,85,0.01,,,0.42,WUHU216HW,2013-05-13 14:34:00,
2013-05-13 15:39:00,48.2,42.9,29.48,East,90,2.5,8.7,82,0.01,,,0.42,WUHU216HW,2013-05-13 14:39:00,
2013-05-13 15:44:00,47.9,41.9,29.49,North,0,2.9,3.1,80,0.01,,,0.42,WUHU216HW,2013-05-13 14:44:00,
2013-05-13 15:49:00,47.2,41.7,29.48,SSW,203,2.5,2.9,81,0.01,,,0.42,WUHU216HW,2013-05-13 14:49:00,
2013-05-13 15:54:00,47.0,42.1,29.48,South,180,2.2,9.4,83,0.02,,,0.43,WUHU216HW,2013-05-13 14:54:00,
2013-05-13 15:59:00,47.5,42.6,29.48,NNW,338,4.0,9.4,83,0.02,,,0.43,WUHU216HW,2013-05-13 14:59:00,
2013-05-13 16:04:00,48.2,42.9,29.48,SE,135,2.5,4.0,82,0.02,,,0.43,WUHU216HW,2013-05-13 15:04:00,
2013-05-13 16:09:00,48.4,42.1,29.48,SE,135,4.5,4.5,79,0.02,,,0.43,WUHU216HW,2013-05-13 15:09:00,
2013-05-13 16:14:00,48.8,42.8,29.49,SSE,158,2.9,4.5,80,0.01,,,0.43,WUHU216HW,2013-05-13 15:14:00,
2013-05-13 16:19:00,49.0,42.3,29.48,South,180,1.6,2.9,78,0.01,,,0.43,WUHU216HW,2013-05-13 15:19:00,
2013-05-13 16:24:00,49.0,42.3,29.49,NE,45,4.7,4.7,78,0.01,,,0.43,WUHU216HW,2013-05-13 15:24:00,
2013-05-13 16:29:00,49.0,42.3,29.48,South,180,2.5,4.7,78,0.01,,,0.43,WUHU216HW,2013-05-13 15:29:00,
2013-05-13 16:34:00,49.0,42.7,29.48,NW,315,2.5,4.7,79,0.01,,,0.43,WUHU216HW,2013-05-13 15:34:00,
2013-05-13 16:39:00,49.3,42.7,29.48,ESE,113,2.5,2.5,78,0.01,,,0.43,WUHU216HW,2013-05-13 15:39:00,
2013-05-13 16:44:00,49.3,42.7,29.47,NNW,338,5.1,5.1,78,0.01,,,0.43,WUHU216HW,2013-05-13 15:44:00,
2013-05-13 16:49:00,50.0,42.8,29.47,ESE,113,1.8,5.1,76,0.00,,,0.43,WUHU216HW,2013-05-13 15:49:00,
2013-05-13 16:54:00,49.9,42.9,29.47,NW,315,3.1,3.1,77,0.00,,,0.43,WUHU216HW,2013-05-13 15:54:00,
2013-05-13 16:59:00,49.1,41.9,29.47,SE,135,4.7,4.7,76,0.00,,,0.43,WUHU216HW,2013-05-13 15:59:00,
2013-05-13 17:04:00,49.0,41.7,29.47,NNW,338,4.3,4.7,76,0.00,,,0.43,WUHU216HW,2013-05-13 16:04:00,
2013-05-13 17:09:00,49.0,42.3,29.47,SSE,158,1.6,4.7,78,0.00,,,0.43,WUHU216HW,2013-05-13 16:09:00,
2013-05-13 17:14:00,49.0,42.0,29.47,NE,45,2.0,2.9,77,0.00,,,0.43,WUHU216HW,2013-05-13 16:14:00,
2013-05-13 17:19:00,48.6,41.7,29.48,NNW,338,2.5,2.5,77,0.00,,,0.43,WUHU216HW,2013-05-13 16:19:00,
2013-05-13 17:24:00,48.2,41.3,29.47,WNW,293,2.7,2.7,77,0.00,,,0.43,WUHU216HW,2013-05-13 16:24:00,
2013-05-13 17:29:00,47.3,41.5,29.47,NW,315,4.7,4.7,80,0.00,,,0.43,WUHU216HW,2013-05-13 16:29:00,
2013-05-13 17:35:00,47.0,41.1,29.47,NW,315,4.0,4.7,80,0.00,,,0.43,WUHU216HW,2013-05-13 16:35:00,
2013-05-13 17:40:00,47.0,41.5,29.47,WNW,293,6.3,6.3,81,0.00,,,0.43,WUHU216HW,2013-05-13 16:40:00,
2013-05-13 17:45:00,47.9,42.9,29.47,North,0,1.8,6.3,83,0.00,,,0.43,WUHU216HW,2013-05-13 16:45:00,
2013-05-13 17:50:00,48.1,42.1,29.47,ESE,113,3.1,3.1,80,0.00,,,0.43,WUHU216HW,2013-05-13 16:50:00,
2013-05-13 17:55:00,47.9,41.3,29.48,SSW,203,3.4,3.4,78,0.00,,,0.43,WUHU216HW,2013-05-13 16:55:00,
2013-05-13 18:00:00,47.2,40.7,29.49,WNW,293,4.7,4.7,78,0.00,,,0.43,WUHU216HW,2013-05-13 17:00:00,
2013-05-13 18:05:00,45.7,39.6,29.49,NW,315,4.7,4.7,79,0.01,,,0.44,WUHU216HW,2013-05-13 17:05:00,
2013-05-13 18:10:00,45.0,39.5,29.48,NNW,338,2.5,4.7,81,0.02,,,0.45,WUHU216HW,2013-05-13 17:10:00,
2013-05-13 18:15:00,44.8,40.6,29.48,NNW,338,1.6,4.7,85,0.02,,,0.45,WUHU216HW,2013-05-13 17:15:00,
2013-05-13 18:20:00,45.0,40.8,29.47,WNW,293,1.8,2.5,85,0.02,,,0.45,WUHU216HW,2013-05-13 17:20:00,
2013-05-13 18:25:00,44.8,40.6,29.48,NW,315,4.5,4.5,85,0.02,,,0.45,WUHU216HW,2013-05-13 17:25:00,
2013-05-13 18:30:00,44.5,40.2,29.48,South,180,4.0,4.5,85,0.02,,,0.45,WUHU216HW,2013-05-13 17:30:00,
2013-05-13 18:35:00,43.6,39.3,29.48,NNE,23,4.9,4.9,85,0.02,,,0.45,WUHU216HW,2013-05-13 17:35:00,
2013-05-13 18:40:00,43.4,39.4,29.48,SSE,158,1.6,4.9,86,0.03,,,0.46,WUHU216HW,2013-05-13 17:40:00,
2013-05-13 18:45:00,43.0,38.8,29.48,North,0,2.5,4.9,85,0.04,,,0.47,WUHU216HW,2013-05-13 17:45:00,
2013-05-13 18:50:00,42.7,39.1,29.49,NW,315,2.9,3.6,87,0.04,,,0.47,WUHU216HW,2013-05-13 17:50:00,
2013-05-13 18:55:00,42.5,38.9,29.49,NNW,338,2.7,3.6,87,0.05,,,0.48,WUHU216HW,2013-05-13 17:55:00,
2013-05-13 19:00:00,42.1,38.5,29.48,NW,315,2.7,2.9,87,0.05,,,0.49,WUHU216HW,2013-05-13 18:00:00,
2013-05-13 19:05:00,42.5,39.2,29.48,NW,315,3.8,3.8,88,0.05,,,0.50,WUHU216HW,2013-05-13 18:05:00,
2013-05-13 19:10:00,42.5,39.2,29.48,NW,315,0.7,3.8,88,0.05,,,0.50,WUHU216HW,2013-05-13 18:10:00,
2013-05-13 19:15:00,42.7,39.3,29.47,NW,315,2.0,3.8,88,0.05,,,0.50,WUHU216HW,2013-05-13 18:15:00,
2013-05-13 19:20:00,42.8,39.5,29.47,NNW,338,2.0,2.0,88,0.05,,,0.50,WUHU216HW,2013-05-13 18:20:00,
2013-05-13 19:25:00,43.0,39.7,29.47,North,0,2.0,2.0,88,0.05,,,0.50,WUHU216HW,2013-05-13 18:25:00,
2013-05-13 19:30:00,43.0,39.7,29.47,NNW,338,3.1,3.1,88,0.05,,,0.50,WUHU216HW,2013-05-13 18:30:00,
2013-05-13 19:35:00,43.2,39.6,29.47,North,0,1.8,3.1,87,0.05,,,0.50,WUHU216HW,2013-05-13 18:35:00,
2013-05-13 19:40:00,43.0,39.7,29.47,North,0,1.1,1.8,88,0.03,,,0.50,WUHU216HW,2013-05-13 18:40:00,
2013-05-13 19:45:00,43.0,39.7,29.47,South,180,1.1,1.8,88,0.03,,,0.50,WUHU216HW,2013-05-13 18:45:00,
2013-05-13 19:50:00,43.0,39.7,29.47,North,0,2.7,2.7,88,0.03,,,0.50,WUHU216HW,2013-05-13 18:50:00,
2013-05-13 19:55:00,43.0,39.7,29.47,North,0,1.6,2.7,88,0.02,,,0.50,WUHU216HW,2013-05-13 18:55:00,
2013-05-13 20:00:00,43.2,39.9,29.47,NW,315,2.9,2.9,88,0.01,,,0.50,WUHU216HW,2013-05-13 19:00:00,
2013-05-13 20:05:00,43.2,39.9,29.47,NNE,23,2.9,2.9,88,0.00,,,0.50,WUHU216HW,2013-05-13 19:05:00,
2013-05-13 20:10:00,43.4,40.1,29.47,ESE,113,1.8,2.9,88,0.00,,,0.50,WUHU216HW,2013-05-13 19:10:00,
2013-05-13 20:15:00,43.2,40.2,29.47,SE,135,1.6,2.9,89,0.01,,,0.51,WUHU216HW,2013-05-13 19:15:00,
2013-05-13 20:20:00,42.8,39.9,29.47,NE,45,1.8,2.5,89,0.05,,,0.55,WUHU216HW,2013-05-13 19:20:00,
2013-05-13 20:25:00,42.8,39.9,29.47,NW,315,1.6,2.5,89,0.05,,,0.55,WUHU216HW,2013-05-13 19:25:00,
2013-05-13 20:30:00,43.0,40.3,29.47,NNW,338,2.5,2.5,90,0.05,,,0.55,WUHU216HW,2013-05-13 19:30:00,
2013-05-13 20:35:00,43.0,40.3,29.47,SE,135,1.6,2.5,90,0.05,,,0.55,WUHU216HW,2013-05-13 19:35:00,
2013-05-13 20:40:00,42.8,39.9,29.47,NNW,338,2.5,2.5,89,0.05,,,0.55,WUHU216HW,2013-05-13 19:40:00,
2013-05-13 20:45:00,42.7,39.7,29.47,ENE,68,1.8,2.5,89,0.05,,,0.55,WUHU216HW,2013-05-13 19:45:00,
2013-05-13 20:50:00,42.5,39.5,29.47,ENE,68,1.3,2.5,89,0.05,,,0.55,WUHU216HW,2013-05-13 19:50:00,
2013-05-13 20:55:00,42.3,39.0,29.47,NE,45,1.8,1.8,88,0.05,,,0.55,WUHU216HW,2013-05-13 19:55:00,
2013-05-13 21:00:00,42.1,38.8,29.47,ESE,113,1.1,1.8,88,0.05,,,0.55,WUHU216HW,2013-05-13 20:00:00,
2013-05-13 21:05:00,41.9,38.6,29.47,North,0,1.1,1.8,88,0.05,,,0.55,WUHU216HW,2013-05-13 20:05:00,
2013-05-13 21:10:00,41.9,39.0,29.47,SW,225,1.6,1.6,89,0.04,,,0.55,WUHU216HW,2013-05-13 20:10:00,
2013-05-13 21:15:00,41.9,39.0,29.46,South,180,1.6,1.6,89,0.02,,,0.55,WUHU216HW,2013-05-13 20:15:00,
2013-05-13 21:20:00,41.9,39.0,29.46,NNW,338,4.5,4.5,89,0.00,,,0.55,WUHU216HW,2013-05-13 20:20:00,
2013-05-13 21:25:00,41.8,38.8,29.46,ESE,113,3.4,4.5,89,0.00,,,0.55,WUHU216HW,2013-05-13 20:25:00,
2013-05-13 21:30:00,41.8,38.8,29.46,NE,45,1.3,3.4,89,0.00,,,0.55,WUHU216HW,2013-05-13 20:30:00,
2013-05-13 21:35:00,41.8,38.4,29.46,ENE,68,1.1,3.4,88,0.00,,,0.55,WUHU216HW,2013-05-13 20:35:00,
2013-05-13 21:40:00,41.6,38.3,29.46,SSE,158,2.5,2.5,88,0.00,,,0.55,WUHU216HW,2013-05-13 20:40:00,
2013-05-13 21:45:00,41.4,38.1,29.46,SW,225,1.1,2.7,88,0.00,,,0.55,WUHU216HW,2013-05-13 20:45:00,
2013-05-13 21:50:00,41.4,38.4,29.46,East,90,1.1,2.7,89,0.00,,,0.55,WUHU216HW,2013-05-13 20:50:00,
2013-05-13 21:55:00,41.6,38.6,29.46,NNW,338,1.8,1.8,89,0.00,,,0.55,WUHU216HW,2013-05-13 20:55:00,
2013-05-13 22:00:00,41.6,38.6,29.46,SE,135,0.4,1.8,89,0.00,,,0.55,WUHU216HW,2013-05-13 21:00:00,
2013-05-13 22:05:00,41.6,38.6,29.45,SSE,158,1.1,1.1,89,0.00,,,0.55,WUHU216HW,2013-05-13 21:05:00,
2013-05-13 22:10:00,41.6,38.6,29.45,NNW,338,0.0,1.1,89,0.00,,,0.55,WUHU216HW,2013-05-13 21:10:00,
2013-05-13 22:15:00,41.6,38.6,29.45,ESE,113,1.6,1.6,89,0.00,,,0.55,WUHU216HW,2013-05-13 21:15:00,
2013-05-13 22:20:00,41.6,38.6,29.45,NW,315,1.1,2.5,89,0.00,,,0.55,WUHU216HW,2013-05-13 21:20:00,
2013-05-13 22:25:00,41.6,38.6,29.44,West,270,0.9,2.5,89,0.00,,,0.55,WUHU216HW,2013-05-13 21:25:00,
2013-05-13 22:30:00,41.8,38.8,29.44,WNW,293,1.8,1.8,89,0.00,,,0.55,WUHU216HW,2013-05-13 21:30:00,
2013-05-13 22:35:00,41.8,38.8,29.44,ESE,113,0.7,1.8,89,0.00,,,0.55,WUHU216HW,2013-05-13 21:35:00,
2013-05-13 22:40:00,41.8,38.8,29.43,NNW,338,3.4,3.4,89,0.00,,,0.55,WUHU216HW,2013-05-13 21:40:00,
2013-05-13 22:45:00,41.8,38.8,29.43,WNW,293,2.5,3.4,89,0.00,,,0.55,WUHU216HW,2013-05-13 21:45:00,
2013-05-13 22:50:00,41.9,39.0,29.43,East,90,2.2,2.5,89,0.00,,,0.55,WUHU216HW,2013-05-13 21:50:00,
2013-05-13 22:55:00,41.8,38.8,29.43,WNW,293,3.6,3.6,89,0.00,,,0.55,WUHU216HW,2013-05-13 21:55:00,
2013-05-13 23:00:00,41.8,38.8,29.43,NNW,338,2.9,3.6,89,0.00,,,0.55,WUHU216HW,2013-05-13 22:00:00,
2013-05-13 23:05:00,41.8,38.4,29.43,NNE,23,2.0,3.6,88,0.00,,,0.55,WUHU216HW,2013-05-13 22:05:00,
2013-05-13 23:10:00,41.8,38.4,29.43,North,0,1.6,2.0,88,0.00,,,0.55,WUHU216HW,2013-05-13 22:10:00,
2013-05-13 23:15:00,41.8,38.4,29.42,SE,135,4.5,4.5,88,0.00,,,0.55,WUHU216HW,2013-05-13 22:15:00,
2013-05-13 23:20:00,41.9,38.6,29.42,NNW,338,1.8,4.5,88,0.00,,,0.55,WUHU216HW,2013-05-13 22:20:00,
2013-05-13 23:25:00,41.9,38.4,29.42,South,180,0.9,2.2,87,0.00,,,0.55,WUHU216HW,2013-05-13 22:25:00,
2013-05-13 23:30:00,41.9,38.4,29.42,NW,315,2.5,2.5,87,0.00,,,0.55,WUHU216HW,2013-05-13 22:30:00,
2013-05-13 23:35:00,41.9,38.4,29.42,SSW,203,1.8,2.5,87,0.00,,,0.55,WUHU216HW,2013-05-13 22:35:00,
2013-05-13 23:40:00,41.9,38.4,29.41,SSW,203,2.5,2.5,87,0.00,,,0.55,WUHU216HW,2013-05-13 22:40:00,
2013-05-13 23:45:00,41.9,38.4,29.41,NW,315,2.0,2.5,87,0.00,,,0.55,WUHU216HW,2013-05-13 22:45:00,
2013-05-13 23:50:00,41.9,38.4,29.41,East,90,3.4,3.4,87,0.00,,,0.55,WUHU216HW,2013-05-13 22:50:00,
2013-05-13 23:55:00,41.9,38.4,29.41,NNW,338,3.6,3.6,87,0.00,,,0.55,WUHU216HW,2013-05-13 22:55:00,